| time (UTC) | temp C | wind direction | speed KPH | gust KPH | rain 1hr cm | rain 24hr cm | rain mn cm | humidity % | barometer mb |
| 20260506084308 | 24 | 166 | 3.2 | 9.7 | 0.00 | 0.00 | 0.00 | 85 | 1009.8 |
| 20260506083302 | 24 | 180 | 3.2 | 11.3 | 0.00 | 0.00 | 0.00 | 85 | 1009.8 |
| 20260506082301 | 24 | 159 | 3.2 | 9.7 | 0.00 | 0.00 | 0.00 | 85 | 1009.7 |
| 20260506081317 | 24 | 133 | 4.8 | 19.3 | 0.00 | 0.00 | 0.00 | 85 | 1009.6 |
| 20260506080313 | 24 | 138 | 3.2 | 14.5 | 0.00 | 0.00 | 0.00 | 85 | 1009.5 |
| 20260506073302 | 24 | 200 | 1.6 | 9.7 | 0.00 | 0.00 | 0.00 | 85 | 1009.7 |
| 20260506072317 | 24 | 201 | 3.2 | 8.0 | 0.00 | 0.00 | 0.00 | 85 | 1009.8 |
| 20260506071317 | 25 | 165 | 3.2 | 8.0 | 0.00 | 0.00 | 0.00 | 85 | 1010.2 |
| 20260506070314 | 25 | 157 | 1.6 | 11.3 | 0.00 | 0.00 | 0.00 | 85 | 1010.3 |
| 20260506062320 | 25 | 163 | 1.6 | 11.3 | 0.00 | 0.00 | 0.00 | 85 | 1010.4 |
| 20260506061315 | 25 | 175 | 4.8 | 14.5 | 0.00 | 0.00 | 0.00 | 85 | 1010.2 |
| 20260506060313 | 25 | 169 | 3.2 | 12.9 | 0.00 | 0.00 | 0.00 | 85 | 1010.1 |
| 20260506051311 | 24 | 205 | 1.6 | 9.7 | 0.00 | 0.00 | 0.00 | 85 | 1010.2 |
| 20260506050326 | 24 | 146 | 3.2 | 8.0 | 0.00 | 0.00 | 0.00 | 85 | 1010.2 |
| 20260506044323 | 24 | 162 | 3.2 | 8.0 | 0.00 | 0.00 | 0.00 | 85 | 1010.0 |
| 20260506043320 | 24 | 183 | 3.2 | 11.3 | 0.00 | 0.00 | 0.00 | 85 | 1009.9 |
| 20260506042320 | 24 | 171 | 3.2 | 14.5 | 0.00 | 0.00 | 0.00 | 85 | 1009.9 |
| 20260506041315 | 24 | 140 | 3.2 | 11.3 | 0.00 | 0.00 | 0.00 | 85 | 1009.7 |
| 20260506040331 | 24 | 178 | 3.2 | 9.7 | 0.00 | 0.00 | 0.00 | 85 | 1009.7 |
| 20260506035329 | 25 | 255 | 4.8 | 11.3 | 0.00 | 0.00 | 0.00 | 85 | 1009.8 |
| 20260506034324 | 25 | 190 | 3.2 | 11.3 | 0.00 | 0.00 | 0.00 | 85 | 1009.6 |
| 20260506033320 | 25 | 115 | 3.2 | 9.7 | 0.00 | 0.00 | 0.00 | 85 | 1009.7 |
| 20260506032336 | 25 | 178 | 4.8 | 11.3 | 0.00 | 0.00 | 0.00 | 85 | 1009.6 |
| 20260506031334 | 25 | 171 | 3.2 | 8.0 | 0.00 | 0.00 | 0.00 | 85 | 1009.5 |
| 20260506030228 | 25 | 171 | 1.6 | 11.3 | 0.00 | 0.00 | 0.00 | 85 | 1009.5 |
| 20260506025229 | 25 | 165 | 1.6 | 8.0 | 0.00 | 0.00 | 0.00 | 85 | 1009.5 |
| 20260506024225 | 25 | 184 | 1.6 | 4.8 | 0.00 | 0.00 | 0.00 | 85 | 1009.5 |
| 20260506023222 | 25 | 146 | 1.6 | 4.8 | 0.00 | 0.00 | 0.00 | 85 | 1009.4 |
| 20260506022239 | 25 | 148 | 1.6 | 6.4 | 0.00 | 0.00 | 0.00 | 85 | 1009.1 |
| 20260506021239 | 25 | 157 | 1.6 | 8.0 | 0.00 | 0.00 | 0.00 | 84 | 1008.8 |
| 20260506020235 | 25 | 142 | 3.2 | 12.9 | 0.00 | 0.00 | 0.00 | 84 | 1008.6 |
| 20260506015230 | 25 | 152 | 3.2 | 14.5 | 0.00 | 0.00 | 0.00 | 84 | 1008.3 |
| 20260506014229 | 25 | 217 | 1.6 | 11.3 | 0.00 | 0.00 | 0.00 | 84 | 1008.2 |
| 20260506013224 | 25 | 176 | 4.8 | 11.3 | 0.00 | 0.00 | 0.00 | 84 | 1008.2 |
| 20260506012241 | 26 | 202 | 4.8 | 11.3 | 0.00 | 0.00 | 0.00 | 83 | 1008.0 |
| 20260506011237 | 26 | 119 | 6.4 | 12.9 | 0.00 | 0.00 | 0.00 | 83 | 1007.8 |
| 20260506010236 | 26 | 121 | 6.4 | 11.3 | 0.00 | 0.00 | 0.00 | 82 | 1007.8 |
| 20260506005232 | 26 | 168 | 3.2 | 16.1 | 0.00 | 0.00 | 0.00 | 82 | 1007.7 |
| 20260506004228 | 26 | 147 | 3.2 | 11.3 | 0.00 | 0.00 | 0.00 | 82 | 1007.7 |
| 20260506003228 | 27 | 74 | 3.2 | 11.3 | 0.00 | 0.00 | 0.00 | 81 | 1007.5 |
| 20260506002243 | 27 | 140 | 3.2 | 11.3 | 0.00 | 0.00 | 0.00 | 81 | 1007.5 |
| 20260506001238 | 27 | 109 | 1.6 | 11.3 | 0.00 | 0.00 | 0.00 | 80 | 1007.6 |
| 20260506000240 | 27 | 169 | 3.2 | 14.5 | 0.00 | 0.00 | 0.00 | 79 | 1007.6 |
| 20260505235236 | 27 | 154 | 4.8 | 11.3 | 0.00 | 0.00 | 0.00 | 78 | 1007.6 |
| 20260505234232 | 28 | 215 | 4.8 | 9.7 | 0.00 | 0.00 | 0.00 | 77 | 1007.5 |
| 20260505233249 | 28 | 189 | 1.6 | 9.7 | 0.00 | 0.00 | 0.00 | 77 | 1007.6 |
| 20260505232250 | 28 | 151 | 3.2 | 12.9 | 0.00 | 0.00 | 0.00 | 77 | 1007.5 |
| 20260505231246 | 28 | 209 | 4.8 | 11.3 | 0.00 | 0.00 | 0.00 | 76 | 1007.6 |
| 20260505230242 | 28 | 136 | 3.2 | 6.4 | 0.00 | 0.00 | 0.00 | 76 | 1007.6 |
| 20260505225242 | 28 | 108 | 4.8 | 12.9 | 0.00 | 0.00 | 0.00 | 74 | 1007.6 |
| 20260505224238 | 28 | 190 | 3.2 | 11.3 | 0.00 | 0.00 | 0.00 | 74 | 1007.5 |
| 20260505223255 | 28 | 163 | 8.0 | 19.3 | 0.00 | 0.00 | 0.00 | 73 | 1007.6 |
| 20260505222250 | 28 | 129 | 3.2 | 11.3 | 0.00 | 0.00 | 0.00 | 73 | 1007.5 |
| 20260505221249 | 28 | 211 | 3.2 | 12.9 | 0.00 | 0.00 | 0.00 | 74 | 1007.5 |
| 20260505220244 | 28 | 130 | 4.8 | 12.9 | 0.00 | 0.00 | 0.00 | 74 | 1007.6 |
| 20260505215240 | 28 | 139 | 6.4 | 14.5 | 0.00 | 0.00 | 0.00 | 73 | 1007.6 |
| 20260505214240 | 28 | 161 | 3.2 | 16.1 | 0.00 | 0.00 | 0.00 | 73 | 1007.8 |
| 20260505213254 | 29 | 153 | 3.2 | 14.5 | 0.00 | 0.00 | 0.00 | 73 | 1007.8 |
| 20260505212250 | 28 | 184 | 3.2 | 11.3 | 0.00 | 0.00 | 0.00 | 73 | 1007.9 |
| 20260505211251 | 28 | 184 | 6.4 | 12.9 | 0.00 | 0.00 | 0.00 | 72 | 1008.0 |
| 20260505210247 | 28 | 214 | 3.2 | 14.5 | 0.00 | 0.00 | 0.00 | 74 | 1008.1 |
| 20260505205244 | 28 | 207 | 3.2 | 16.1 | 0.00 | 0.00 | 0.00 | 74 | 1008.3 |
| 20260505204259 | 28 | 128 | 3.2 | 9.7 | 0.00 | 0.00 | 0.00 | 75 | 1008.4 |
| 20260505203258 | 28 | 115 | 3.2 | 19.3 | 0.00 | 0.00 | 0.00 | 74 | 1008.6 |
| 20260505202253 | 28 | 210 | 4.8 | 17.7 | 0.00 | 0.00 | 0.00 | 74 | 1008.8 |
| 20260505201249 | 28 | 188 | 8.0 | 16.1 | 0.00 | 0.00 | 0.00 | 73 | 1008.9 |
| 20260505200248 | 28 | 268 | 8.0 | 16.1 | 0.00 | 0.00 | 0.00 | 74 | 1009.0 |
| 20260505195305 | 28 | 175 | 1.6 | 27.4 | 0.00 | 0.00 | 0.00 | 75 | 1009.1 |
| 20260505194258 | 28 | 238 | 3.2 | 12.9 | 0.00 | 0.00 | 0.00 | 76 | 1009.4 |
| 20260505193254 | 27 | 126 | 3.2 | 14.5 | 0.00 | 0.00 | 0.00 | 77 | 1009.4 |
| 20260505192255 | 27 | 209 | 6.4 | 16.1 | 0.00 | 0.00 | 0.00 | 76 | 1009.4 |
| 20260505191251 | 27 | 210 | 6.4 | 14.5 | 0.00 | 0.00 | 0.00 | 77 | 1009.4 |
| 20260505190305 | 27 | 203 | 4.8 | 14.5 | 0.00 | 0.00 | 0.00 | 77 | 1009.6 |
| 20260505185305 | 27 | 242 | 4.8 | 20.9 | 0.00 | 0.00 | 0.00 | 78 | 1009.6 |
| 20260505184259 | 27 | 166 | 6.4 | 17.7 | 0.00 | 0.00 | 0.00 | 78 | 1009.7 |
| 20260505183254 | 27 | 150 | 3.2 | 16.1 | 0.00 | 0.00 | 0.00 | 79 | 1009.9 |
| 20260505182253 | 26 | 228 | 3.2 | 12.9 | 0.00 | 0.00 | 0.00 | 79 | 1009.9 |
| 20260505181307 | 26 | 173 | 3.2 | 17.7 | 0.00 | 0.00 | 0.00 | 79 | 1009.8 |
| 20260505180302 | 26 | 242 | 4.8 | 11.3 | 0.00 | 0.00 | 0.00 | 79 | 1009.9 |
| 20260505175256 | 26 | 257 | 4.8 | 20.9 | 0.00 | 0.00 | 0.00 | 80 | 1010.0 |
| 20260505174254 | 26 | 156 | 8.0 | 22.5 | 0.00 | 0.00 | 0.00 | 80 | 1010.1 |
| 20260505173309 | 26 | 246 | 1.6 | 16.1 | 0.00 | 0.00 | 0.00 | 81 | 1010.2 |
| 20260505172306 | 25 | 175 | 3.2 | 12.9 | 0.00 | 0.00 | 0.00 | 82 | 1010.1 |
| 20260505171303 | 25 | 129 | 3.2 | 14.5 | 0.00 | 0.00 | 0.00 | 82 | 1010.2 |
| 20260505170258 | 25 | 181 | 3.2 | 16.1 | 0.00 | 0.00 | 0.00 | 81 | 1010.3 |
| 20260505165312 | 25 | 149 | 3.2 | 11.3 | 0.00 | 0.00 | 0.00 | 81 | 1010.3 |
| 20260505164308 | 25 | 300 | 1.6 | 14.5 | 0.00 | 0.00 | 0.00 | 81 | 1010.3 |
| 20260505163306 | 25 | 186 | 3.2 | 11.3 | 0.00 | 0.00 | 0.00 | 81 | 1010.3 |
| 20260505162305 | 25 | 166 | 8.0 | 20.9 | 0.00 | 0.00 | 0.00 | 81 | 1010.4 |
| 20260505161258 | 25 | 97 | 6.4 | 14.5 | 0.00 | 0.00 | 0.00 | 81 | 1010.5 |
| 20260505160259 | 25 | 179 | 4.8 | 14.5 | 0.00 | 0.00 | 0.00 | 81 | 1010.4 |
| 20260505153306 | 25 | 142 | 4.8 | 19.3 | 0.00 | 0.00 | 0.00 | 82 | 1010.3 |
| 20260505152305 | 25 | 180 | 1.6 | 16.1 | 0.00 | 0.00 | 0.00 | 83 | 1010.2 |
| 20260505151319 | 24 | 247 | 6.4 | 20.9 | 0.00 | 0.00 | 0.00 | 84 | 1010.3 |
| 20260505150316 | 24 | 221 | 3.2 | 16.1 | 0.00 | 0.00 | 0.00 | 84 | 1010.2 |
| 20260505140318 | 23 | 209 | 4.8 | 16.1 | 0.00 | 0.00 | 0.00 | 85 | 1009.9 |
| 20260505124311 | 21 | 128 | 3.2 | 9.7 | 0.00 | 0.00 | 0.00 | 85 | 1009.8 |
| 20260505123312 | 21 | 140 | 3.2 | 6.4 | 0.00 | 0.00 | 0.00 | 86 | 1009.4 |
| 20260505122328 | 21 | 126 | 1.6 | 6.4 | 0.00 | 0.00 | 0.00 | 85 | 1009.4 |
| 20260505121323 | 21 | 125 | 3.2 | 6.4 | 0.00 | 0.00 | 0.00 | 85 | 1009.8 |
| 20260505120324 | 21 | 138 | 1.6 | 4.8 | 0.00 | 0.00 | 0.00 | 85 | 1009.8 |
| 20260505115319 | 21 | 125 | 1.6 | 4.8 | 0.00 | 0.00 | 0.00 | 86 | 1009.5 |
| 20260505114315 | 21 | 135 | 1.6 | 4.8 | 0.00 | 0.00 | 0.00 | 86 | 1009.7 |
| 20260505113315 | 20 | 142 | 1.6 | 4.8 | 0.00 | 0.00 | 0.00 | 86 | 1009.7 |
| 20260505112331 | 20 | 103 | 1.6 | 8.0 | 0.00 | 0.00 | 0.00 | 86 | 1009.4 |
| 20260505111325 | 20 | 136 | 1.6 | 4.8 | 0.00 | 0.00 | 0.00 | 86 | 1009.3 |
| 20260505110225 | 20 | 135 | 1.6 | 6.4 | 0.00 | 0.00 | 0.00 | 86 | 1009.4 |
| 20260505101228 | 20 | 178 | 1.6 | 6.4 | 0.00 | 0.00 | 0.00 | 86 | 1009.5 |
| 20260505100224 | 20 | 127 | 3.2 | 6.4 | 0.00 | 0.00 | 0.00 | 86 | 1009.5 |
| 20260505095224 | 20 | 150 | 3.2 | 12.9 | 0.00 | 0.00 | 0.00 | 86 | 1009.6 |
| 20260505094240 | 20 | 128 | 4.8 | 9.7 | 0.00 | 0.00 | 0.00 | 86 | 1009.6 |
| 20260505093237 | 20 | 123 | 1.6 | 6.4 | 0.00 | 0.00 | 0.00 | 86 | 1009.8 |
| 20260505092238 | 20 | 95 | 3.2 | 9.7 | 0.00 | 0.00 | 0.00 | 86 | 1009.9 |
| 20260505091233 | 21 | 169 | 0.0 | 4.8 | 0.00 | 0.00 | 0.00 | 86 | 1010.0 |
| 20260505090230 | 21 | 190 | 1.6 | 8.0 | 0.00 | 0.00 | 0.00 | 86 | 1010.0 |
| 20260505085224 | 21 | 120 | 3.2 | 9.7 | 0.00 | 0.00 | 0.00 | 85 | 1010.0 |